Content
SEND FEEDBACK

Daily
Averages
Monthly
Summary
United States of America

MARBLEHEAD, OHIO


Home > North America > United States > Ohio
Elevation: 630 feet     Latitude: 41 30N     Longitude: 082 42W

WEATHER
 
SELECT A DAY
Number of Records: 183,708;   Date Range: 10/8/98 - 10/20/14
 
SHARE

PRINT THIS DATA

[ ← Previous Day ]
WEATHER ALMANAC - FEBRUARY 21, 2013
[ Next Day → ]
[ °C ]   °F
Weather ElementAverageHighLow
Temperature20.7 °F21.9 °F (3:53 am)19 °F (6:53 am)
Dewpoint14.2 °F17.6 °F (2:44 am)10.9 °F (4:53 pm)
Humidity76.2 %86 % (12:23 am)65 % (4:53 pm)
Barometer30.31 in30.39 in (11:53 am)30.21 in (12:23 am)
Wind Speed8.4 mph12.7 mph (5:17 am)
Weather ElementAverage
Visibility6.1 mi
Wind DirectionSSE (169.5 °)

Weather ElementTotal
Precipitation---
Heating Degree Days44.6 (Base 65)
Averaged from 43 records on February 21, 2013
WEATHER CONDITIONS BREAKOUT
WIND DIRECTION BREAKOUT
WEATHER BY HOUR - FEBRUARY 21, 2013
[ °C ]   °F
Local TimeTemperatureDewpointHumidityBarometerVisibilityWind DirectionWind SpeedGust SpeedPrecipitationEventsConditions
12:23 AM19.4 °F15.8 °F86 %30.21 in4.0 miWest (280°)4.6 mph0.00 inSnowLight Snow
12:53 AM21.0 °F15.1 °F78 %30.25 in5.0 miWest (280°)6.9 mph0.00 inSnowLight Snow
1:45 AM21.2 °F15.8 °F80 %30.22 in3.0 miWNW (290°)8.1 mph0.00 inSnowLight Snow
1:53 AM21.0 °F16.0 °F81 %30.26 in4.0 miWest (280°)8.1 mph0.00 inSnowLight Snow
2:09 AM21.2 °F15.8 °F80 %30.23 in5.0 miWNW (290°)6.9 mph0.00 inSnowLight Snow
2:22 AM21.2 °F15.8 °F80 %30.23 in2.0 miWNW (290°)9.2 mph0.00 inSnowLight Snow
2:44 AM21.2 °F17.6 °F86 %30.23 in4.0 miWest (280°)8.1 mph0.00 inSnowLight Snow
2:53 AM21.0 °F17.1 °F85 %30.26 in5.0 miWNW (290°)5.8 mph0.00 inSnowLight Snow
3:53 AM21.9 °F14.0 °F72 %30.26 in7.0 miNNW (340°)10.4 mph0.00 inSnowLight Snow
4:53 AM21.0 °F15.1 °F78 %30.28 in4.0 miNNW (330°)10.4 mph0.00 inSnowLight Snow
5:07 AM21.2 °F14.0 °F74 %30.24 in7.0 miNNW (330°)10.4 mph0.00 inSnowLight Snow
5:17 AM21.2 °F15.8 °F80 %30.25 in2.5 miNorth (350°)12.7 mph0.00 inSnowLight Snow
5:30 AM21.2 °F15.8 °F80 %30.25 in4.0 miNorth (360°)9.2 mph0.00 inSnowLight Snow
5:53 AM21.0 °F16.0 °F81 %30.30 in7.0 miNorth (360°)11.5 mph0.00 inSnowLight Snow
6:37 AM19.4 °F12.2 °F74 %30.28 in10.0 miNorth (360°)9.2 mph0.00 inOvercast
6:53 AM19.0 °F12.9 °F77 %30.32 in10.0 miNorth (10°)8.1 mph0.00 inOvercast
7:24 AM19.4 °F12.2 °F74 %30.30 in4.0 miNorth (360°)6.9 mph0.00 inSnowLight Snow
7:36 AM19.4 °F14.0 °F80 %30.30 in2.0 miNorth (360°)8.1 mph0.00 inSnowLight Snow
7:44 AM19.4 °F14.0 °F80 %30.31 in1.8 miNorth (360°)8.1 mph0.00 inSnowLight Snow
7:53 AM19.9 °F14.0 °F78 %30.35 in1.5 miNorth (360°)8.1 mph0.00 inSnowLight Snow
8:53 AM19.9 °F15.1 °F81 %30.38 in1.5 miNE (40°)10.4 mph0.00 inSnowLight Snow
9:00 AM19.4 °F15.8 °F86 %30.35 in1.8 miNNE (20°)9.2 mph0.00 inSnowLight Snow
9:09 AM19.4 °F15.8 °F86 %30.35 in2.0 miNNE (30°)6.9 mph0.00 inSnowLight Snow
9:24 AM19.4 °F14.0 °F80 %30.34 in5.0 miNNE (30°)9.2 mph0.00 inSnowLight Snow
9:38 AM21.2 °F14.0 °F74 %30.33 in5.0 miNNE (30°)9.2 mph0.00 inSnowLight Snow
9:53 AM21.9 °F14.0 °F72 %30.37 in9.0 miNorth (10°)8.1 mph0.00 inOvercast
10:53 AM21.9 °F12.9 °F68 %30.38 in10.0 miNNE (20°)11.5 mphOvercast
11:53 AM21.9 °F12.9 °F68 %30.39 in10.0 miNorth (10°)9.2 mphOvercast
12:37 PM21.2 °F14.0 °F74 %30.34 in2.5 miNorth (10°)8.1 mph0.00 inSnowLight Snow
12:44 PM21.2 °F12.2 °F68 %30.33 in5.0 miNNE (30°)9.2 mph0.00 inSnowLight Snow
12:53 PM21.0 °F14.0 °F74 %30.37 in4.0 miNE (50°)11.5 mph0.00 inSnowLight Snow
1:53 PM21.9 °F12.9 °F68 %30.38 in9.0 miNorth (10°)4.6 mph0.00 inOvercast
2:53 PM21.9 °F14.0 °F72 %30.35 in10.0 miNE (50°)8.1 mphOvercast
3:53 PM21.0 °F12.9 °F71 %30.34 in7.0 miNE (50°)8.1 mph0.00 inSnowLight Snow
4:53 PM21.0 °F10.9 °F65 %30.37 in8.0 miENE (60°)4.6 mph0.00 inOvercast
5:29 PM21.2 °F12.2 °F68 %30.33 in10.0 miENE (70°)4.6 mphScattered Clouds
5:53 PM21.0 °F12.0 °F68 %30.38 in10.0 miENE (70°)4.6 mphClear
6:53 PM19.9 °F12.0 °F71 %30.38 in10.0 miENE (70°)6.9 mphClear
7:53 PM19.9 °F12.9 °F74 %30.37 in10.0 miEast (80°)9.2 mphClear
8:53 PM19.9 °F14.0 °F78 %30.33 in10.0 miEast (80°)11.5 mphClear
9:53 PM19.9 °F14.0 °F78 %30.32 in10.0 miEast (100°)6.9 mphClear
10:53 PM21.0 °F14.0 °F74 %30.31 in10.0 miEast (100°)9.2 mphClear
11:53 PM21.0 °F14.0 °F74 %30.30 in10.0 miESE (110°)9.2 mphClear
Hourly data recorded from KLPR, located miles away from Marblehead, Ohio







STORIES FROM OUR PARTNERS